Waarnemingen

Advertentie
Mijn weer
Bastia, Frankrijk (7790): temperatuur & dauwpunt: 14.11.2018 12:00:00 - 20.11.2018 12:00:00 (CET)Bastia, Frankrijk (7790): temperatuur 5cm: 14.11.2018 12:00:00 - 20.11.2018 12:00:00 (CET)Bastia, Frankrijk (7790): temperatuur -20cm & temperatuur -100cm: 14.11.2018 12:00:00 - 20.11.2018 12:00:00 (CET)Bastia, Frankrijk (7790): windsnelheid & windstoten: 14.11.2018 12:00:00 - 20.11.2018 12:00:00 (CET)Bastia, Frankrijk (7790): windrichting: 14.11.2018 12:00:00 - 20.11.2018 12:00:00 (CET)Bastia, Frankrijk (7790): luchtdruk: 14.11.2018 12:00:00 - 20.11.2018 12:00:00 (CET)Bastia, Frankrijk (7790): zicht: 14.11.2018 12:00:00 - 20.11.2018 12:00:00 (CET)Bastia, Frankrijk (7790): Zonneschijnduur: 14.11.2018 12:00:00 - 20.11.2018 12:00:00 (CET)Bastia, Frankrijk (7790): neerslag: 14.11.2018 12:00:00 - 20.11.2018 12:00:00 (CET)
Datum & Tijd tt [°C] td [°C] tt 5cm [°C] tt -20cm [°C] tt -100cm [°C] ff [km/u] ff [kn] fx [km/u] fx [kn] dd ppp [hPa] vv [km] sd [min] rr [mm]
20.11.2018 12:00:00 14,3 9,3 14,4 14,4 17,2 22 12 33 18 N 1001,7 7 36 0,0
20.11.2018 11:00:00 13,4 9,4 12,8 14,4 17,3 18 10 29 16 N 1002,0 8 17 0,0
20.11.2018 10:00:00 12,6 8,1 11,5 14,4 17,2 14 7 22 12 NW 1001,7 18 0 0,0
20.11.2018 09:00:00 11,5 7,8 9,9 14,4 17,2 9 5 16 9 W 1001,5 54 0 0,0
20.11.2018 08:00:00 10,7 7,2 9,4 14,4 17,3 9 5 17 9 W 1001,1 60 0 0,0
20.11.2018 07:00:00 10,6 7,1 9,4 14,4 17,3 8 4 16 9 W 1000,6 60 0 0,0
20.11.2018 06:00:00 10,5 7,6 9,6 14,4 17,3 10 5 24 13 NW 1000,5 60 0 0,0
20.11.2018 05:00:00 10,3 7,9 9,5 14,5 17,3 5 3 27 15 WNW 1000,2 60 0 0,0
20.11.2018 04:00:00 10,9 7,6 9,7 14,5 17,3 19 10 37 20 N 1000,0 16 0 0,2
20.11.2018 03:00:00 11,5 7,6 9,7 14,5 17,3 24 13 44 24 N 999,8 56 0 0,0
20.11.2018 02:00:00 10,6 8,0 9,5 14,5 17,3 11 6 31 17 NW 999,7 48 0 0,0
20.11.2018 01:00:00 10,7 8,3 9,7 14,5 17,3 17 9 36 19 NW 999,6 20 0 0,2
20.11.2018 00:00:00 10,9 8,6 9,8 14,5 17,3 18 10 29 15 N 1000,0 14 0 1,1
19.11.2018 23:00:00 10,6 8,9 9,5 14,5 17,3 9 5 24 13 NNO 1000,7 7 0 1,8
19.11.2018 22:00:00 10,1 8,7 9,1 14,6 17,3 11 6 19 10 WNW 1001,1 14 0 0,6
19.11.2018 21:00:00 9,6 8,0 9,0 14,6 17,4 9 5 20 11 WNW 1001,6 12 0 0,8
19.11.2018 20:00:00 9,4 8,3 8,9 14,6 17,4 6 3 14 8 WZW 1001,7 6 0 1,8
19.11.2018 19:00:00 9,4 8,3 8,9 14,6 17,4 6 4 11 6 ZZW 1001,8 7 0 0,2
19.11.2018 18:00:00 9,5 8,4 9,1 14,6 17,4 5 3 14 8 ZZW 1002,0 8 0 0,0
19.11.2018 17:00:00 9,7 8,8 9,3 14,6 17,4 7 4 11 6 W 1002,3 7 0 0,4
19.11.2018 16:00:00 9,7 8,5 9,5 14,6 17,4 6 4 9 5 W 1003,0 7 0 0,8
19.11.2018 15:00:00 10,0 8,3 9,8 14,6 17,4 5 3 9 5 W 1003,6 7 0 0,6
19.11.2018 14:00:00 10,4 8,5 10,1 14,6 17,4 3 1 9 5 Z 1004,2 13 0 0,0
19.11.2018 13:00:00 10,2 8,0 9,9 14,6 17,4 7 4 11 6 WZW 1004,9 28 0 0,0
19.11.2018 12:00:00 9,7 7,8 9,5 14,7 17,5 6 4 11 6 ZW 1005,9 16 0 0,0
19.11.2018 11:00:00 9,7 8,3 9,3 14,7 17,5 6 3 9 5 ZZW 1006,9 9 0 0,2
19.11.2018 10:00:00 8,9 7,3 8,2 14,7 17,5 5 3 10 5 ZW 1007,0 13 0 0,2
19.11.2018 09:00:00 9,5 7,1 8,7 14,8 17,5 3 1 12 7 WZW 1007,1 11 0 0,0
19.11.2018 08:00:00 9,6 6,3 7,5 14,8 17,5 6 4 11 6 NO 1007,2 20 0 0,0
19.11.2018 07:00:00 8,0 5,6 6,8 14,8 17,5 7 4 12 6 ZW 1007,4 20 0 0,0
19.11.2018 06:00:00 7,3 5,1 5,2 14,9 17,5 6 4 10 5 ZW 1008,0 20 0 0,0
19.11.2018 05:00:00 6,6 4,6 4,9 15,0 17,5 7 4 11 6 ZW 1008,5 20 0 0,0
19.11.2018 04:00:00 6,6 4,6 4,4 15,0 17,5 8 4 12 6 ZW 1009,1 20 0 0,0
19.11.2018 03:00:00 6,2 4,7 4,0 15,1 17,5 7 4 10 6 ZZW 1009,9 18 0 0,0
19.11.2018 02:00:00 6,9 4,2 4,6 15,1 17,5 8 5 11 6 ZW 1010,4 20 0 0,0
19.11.2018 01:00:00 7,5 4,6 3,7 15,1 17,5 8 5 11 6 WZW 1010,8 20 0 0,0
19.11.2018 00:00:00 8,4 4,0 4,7 15,2 17,5 8 4 16 8 WZW 1011,5 20 0 0,0
18.11.2018 23:00:00 9,1 4,3 6,3 15,2 17,6 9 5 20 11 W 1011,9 20 0 0,0
18.11.2018 22:00:00 9,7 4,9 6,9 15,2 17,6 10 5 18 10 NNW 1012,5 20 0 0,0
18.11.2018 21:00:00 8,9 5,5 6,7 15,2 17,6 9 5 13 7 ZW 1012,7 26 0 0,0
18.11.2018 20:00:00 10,4 4,3 7,9 15,2 17,5 8 4 18 10 WNW 1013,0 37 0 0,0
18.11.2018 19:00:00 10,2 4,3 8,0 15,2 17,6 10 5 20 11 WNW 1013,7 20 0 0,0
18.11.2018 18:00:00 11,0 4,7 8,7 15,1 17,6 10 6 17 9 WNW 1013,8 33 0 0,0
18.11.2018 17:00:00 10,8 5,1 8,7 15,1 17,6 8 4 22 12 WNW 1014,1 36 20 0,0
18.11.2018 16:00:00 11,6 5,2 11,0 15,1 17,6 13 7 29 16 N 1014,7 26 13 0,0
18.11.2018 15:00:00 12,4 5,3 12,2 15,1 17,6 15 8 26 14 NNW 1015,0 6 9 0,0
18.11.2018 14:00:00 12,5 5,2 12,8 15,1 17,6 16 9 29 15 NNW 1015,4 30 32 0,0
18.11.2018 13:00:00 13,0 5,2 14,0 15,1 17,6 14 8 26 14 NNW 1016,2 20 40 0,0
18.11.2018 12:00:00 12,8 5,7 12,3 15,1 17,6 13 7 30 16 N 1017,1 9 16 0,0
18.11.2018 11:00:00 12,0 5,8 12,5 15,1 17,6 19 11 31 17 N 1017,9 13 15 0,0
18.11.2018 10:00:00 11,9 5,5 11,7 15,2 17,7 21 11 39 21 NNO 1018,0 6 3 0,0
18.11.2018 09:00:00 11,7 5,8 11,1 15,2 17,7 18 10 34 18 NNO 1018,0 7 17 0,0
18.11.2018 08:00:00 11,5 6,0 10,2 15,2 17,7 21 11 39 21 NNO 1017,7 24 17 0,0
18.11.2018 07:00:00 11,3 5,6 10,2 15,3 17,7 23 12 39 21 NO 1017,3 30 0 0,0
18.11.2018 06:00:00 11,6 6,1 10,7 15,3 17,7 24 13 39 21 NO 1017,3 32 0 0,0
18.11.2018 05:00:00 11,9 4,4 10,6 15,3 17,7 19 10 35 19 ONO 1017,5 32 0 0,0
18.11.2018 04:00:00 11,8 5,6 10,5 15,3 17,7 21 12 40 22 NO 1017,8 35 0 0,0
18.11.2018 03:00:00 12,1 5,5 11,0 15,4 17,7 26 14 42 23 NO 1018,0 36 0 0,0
18.11.2018 02:00:00 12,2 4,9 11,1 15,4 17,7 23 12 37 20 NO 1018,5 40 0 0,0
18.11.2018 01:00:00 12,2 5,4 11,0 15,4 17,7 20 11 39 21 NO 1018,8 42 0 0,0
18.11.2018 00:00:00 12,4 5,3 11,0 15,5 17,7 26 14 43 23 NO 1019,2 42 0 0,0
17.11.2018 23:00:00 12,4 5,5 10,6 15,5 17,7 22 12 39 21 NO 1019,4 41 0 0,0
17.11.2018 22:00:00 12,0 4,9 10,4 15,5 17,7 21 12 37 20 NO 1019,5 44 0 0,0
17.11.2018 21:00:00 12,4 5,3 11,5 15,5 17,7 25 13 51 27 NO 1019,3 47 0 0,0
17.11.2018 20:00:00 12,7 5,8 11,1 15,5 17,7 26 14 40 22 NO 1019,3 42 0 0,0
17.11.2018 19:00:00 12,5 5,9 11,3 15,6 17,7 26 14 42 23 NO 1019,3 48 0 0,0
17.11.2018 18:00:00 12,6 6,2 11,5 15,6 17,8 28 15 48 26 NO 1019,1 53 0 0,0
17.11.2018 17:00:00 12,7 6,7 11,8 15,6 17,8 30 16 51 28 NNO 1018,9 41 0 0,0
17.11.2018 16:00:00 12,9 6,5 12,2 15,6 17,8 29 16 46 25 NNO 1018,8 17 0 0,0
17.11.2018 15:00:00 13,2 6,3 12,6 15,6 17,8 28 15 49 26 NO 1018,9 15 0 0,0
17.11.2018 14:00:00 13,3 6,2 12,3 15,6 17,8 24 13 39 21 NNO 1019,2 12 0 0,0
17.11.2018 13:00:00 13,0 6,3 12,6 15,7 17,8 25 13 41 22 NNO 1019,8 15 12 0,0
17.11.2018 12:00:00 13,0 6,1 12,7 15,7 17,8 23 13 45 25 NO 1020,5 7 1 0,0
17.11.2018 11:00:00 13,2 6,5 12,2 15,8 17,8 26 14 40 21 NO 1021,2 20 0 0,0
17.11.2018 10:00:00 12,8 6,2 12,2 15,8 17,8 27 14 54 29 NO 1021,3 12 7 0,0
17.11.2018 09:00:00 12,6 6,4 11,6 15,9 17,8 24 13 38 21 NO 1021,3 14 35 0,0
17.11.2018 08:00:00 12,6 5,0 10,5 15,9 17,8 22 12 36 20 NO 1021,1 12 22 0,0
17.11.2018 07:00:00 12,1 5,3 10,4 15,9 17,8 19 10 39 21 NO 1020,9 2,4 0 0,0
17.11.2018 06:00:00 12,1 5,7 10,4 16,0 17,8 22 12 39 21 NNO 1021,0 2,0 0 0,0
17.11.2018 05:00:00 12,2 5,8 9,9 16,0 17,8 20 11 32 17 NNO 1021,3 2,2 0 0,0
17.11.2018 04:00:00 12,2 5,4 10,4 16,1 17,8 19 10 31 17 NO 1021,7 2,4 0 0,0
17.11.2018 03:00:00 12,5 5,4 10,1 16,1 17,8 19 11 30 16 NO 1022,2 2,6 0 0,0
17.11.2018 02:00:00 12,1 4,8 9,5 16,2 17,8 16 9 32 18 NO 1022,6 3,2 0 0,0
17.11.2018 01:00:00 12,0 4,7 9,8 16,2 17,8 14 8 38 20 NO 1022,8 3,5 0 0,0
17.11.2018 00:00:00 12,7 5,8 10,6 16,2 17,8 16 9 28 15 NO 1023,1 2,9 0 0,0
16.11.2018 23:00:00 13,0 5,6 11,3 16,2 17,8 20 11 32 17 NNO 1023,3 3,0 0 0,0
16.11.2018 22:00:00 13,2 5,4 11,7 16,3 17,8 19 10 33 18 NO 1023,5 3,7 0 0,0
16.11.2018 21:00:00 13,3 5,0 11,6 16,3 17,8 18 10 42 23 NO 1023,2 4,5 0 0,0
16.11.2018 20:00:00 13,8 5,9 12,5 16,3 17,8 24 13 43 23 NO 1022,8 3,9 0 0,0
16.11.2018 19:00:00 14,8 6,6 12,8 16,2 17,8 23 12 36 19 NO 1022,1 4,2 0 0,0
16.11.2018 18:00:00 14,4 7,4 10,8 16,2 17,9 19 10 30 16 NNO 1021,9 10 0 0,0
16.11.2018 17:00:00 14,1 7,4 11,9 16,2 17,8 10 5 21 11 NO 1022,0 57 19 0,0
16.11.2018 16:00:00 15,1 7,4 13,5 16,1 17,8 11 6 22 12 NNO 1022,0 38 5 0,0
16.11.2018 15:00:00 15,5 7,3 16,0 16,1 17,9 14 7 29 16 NO 1022,1 19 36 0,0
16.11.2018 14:00:00 15,6 7,6 16,5 16,1 17,9 17 9 32 17 NO 1022,3 9 50 0,0
16.11.2018 13:00:00 16,5 8,7 21,1 16,1 17,9 20 11 34 18 NNO 1022,3 3,8 60 0,0
16.11.2018 12:00:00 16,4 8,6 21,3 16,1 17,9 21 12 31 17 NNO 1022,8 4,0 60 0,0
16.11.2018 11:00:00 16,3 8,8 17,3 16,1 17,9 19 10 28 15 NNO 1023,1 4,1 55 0,0
16.11.2018 10:00:00 16,2 9,4 14,8 16,2 17,9 19 11 45 25 NO 1022,9 60 9 0,0
16.11.2018 09:00:00 15,3 9,4 11,2 16,2 17,8 10 5 16 9 NNO 1022,9 13 43 0,0
16.11.2018 08:00:00 13,8 8,4 9,1 16,2 17,9 10 5 25 13 NO 1022,8 37 10 0,0
16.11.2018 07:00:00 14,0 9,4 11,8 16,3 17,9 13 7 31 17 NNO 1022,0 20 0 0,0
16.11.2018 06:00:00 13,7 11,4 11,3 16,3 17,9 11 6 20 11 N 1021,6 20 0 0,0
16.11.2018 05:00:00 11,9 10,5 10,5 16,3 17,9 7 4 10 6 ZZW 1021,4 19 0 0,0
16.11.2018 04:00:00 11,9 10,3 10,4 16,4 17,9 5 3 9 5 ZW 1021,1 19 0 0,0
16.11.2018 03:00:00 11,8 10,2 10,1 16,4 17,9 8 4 12 6 ZW 1021,1 26 0 0,0
16.11.2018 02:00:00 11,3 10,2 8,2 16,4 17,9 7 4 11 6 ZW 1021,4 13 0 0,0
16.11.2018 01:00:00 11,2 10,1 8,7 16,4 17,9 7 4 12 6 ZW 1021,4 12 0 0,0
16.11.2018 00:00:00 11,5 10,1 8,7 16,5 17,9 8 4 11 6 ZW 1021,6 16 0 0,0
15.11.2018 23:00:00 10,4 9,3 7,2 16,5 17,9 8 4 12 6 ZW 1021,3 9 0 0,0
15.11.2018 22:00:00 11,0 9,9 8,6 16,5 17,9 8 4 11 6 ZW 1021,3 11 0 0,0
15.11.2018 21:00:00 11,7 10,4 8,2 16,5 17,9 8 4 11 6 ZW 1021,3 8 0 0,0
15.11.2018 20:00:00 12,7 10,9 8,7 16,4 17,9 6 3 8 4 WZW 1021,4 11 0 0,0
15.11.2018 19:00:00 14,2 12,4 10,2 16,4 17,9 5 3 6 3 WZW 1021,6 7 0 0,0
15.11.2018 18:00:00 15,6 12,2 14,1 16,3 17,9 4 2 8 4 NW 1021,6 20 0 0,0
15.11.2018 17:00:00 16,0 12,2 14,3 16,3 17,9 6 3 14 8 N 1021,8 15 0 0,0
15.11.2018 16:00:00 16,7 12,4 16,5 16,3 17,9 5 3 13 7 ONO 1022,0 15 15 0,0
15.11.2018 15:00:00 17,1 12,4 18,2 16,2 17,9 6 4 18 10 N 1022,1 20 27 0,0
15.11.2018 14:00:00 17,7 12,2 18,0 16,2 18,0 12 7 21 11 NNW 1022,2 13 17 0,0
15.11.2018 13:00:00 18,0 11,8 24,1 16,2 17,9 14 7 23 13 N 1022,6 7 60 0,0
15.11.2018 12:00:00 17,8 10,9 22,9 16,2 18,0 9 5 18 10 NW 1023,1 17 60 0,0
15.11.2018 11:00:00 17,1 12,2 16,2 16,2 18,0 5 3 11 6 N 1023,7 17 16 0,0
15.11.2018 10:00:00 14,8 12,8 13,0 16,3 18,0 5 3 10 5 ZW 1023,8 16 4 0,0
15.11.2018 09:00:00 13,1 11,7 12,0 16,3 18,0 7 4 10 6 ZW 1023,9 16 0 0,0
15.11.2018 08:00:00 12,3 10,9 11,3 16,3 18,0 8 4 13 7 ZW 1023,8 19 0 0,0
15.11.2018 07:00:00 11,6 10,5 9,4 16,4 18,0 6 3 11 6 WZW 1023,4 18 0 0,0
15.11.2018 06:00:00 11,3 10,0 9,5 16,4 18,0 7 4 9 5 ZZW 1023,4 19 0 0,0
15.11.2018 05:00:00 11,1 9,8 8,6 16,5 18,0 8 4 10 5 ZZW 1023,4 20 0 0,0
15.11.2018 04:00:00 11,6 10,5 8,5 16,5 18,0 5 3 9 5 ZW 1023,5 17 0 0,0
15.11.2018 03:00:00 11,1 10,2 8,6 16,6 18,0 8 5 11 6 ZW 1023,8 16 0 0,0
15.11.2018 02:00:00 11,0 9,9 8,0 16,6 18,0 8 4 11 6 ZW 1024,3 16 0 0,2
15.11.2018 01:00:00 11,1 10,2 8,1 16,6 18,0 9 5 10 6 ZW 1024,3 16 0 0,0
15.11.2018 00:00:00 11,2 10,4 7,4 16,6 18,0 6 3 10 6 ZW 1024,7 12 0 0,0
14.11.2018 23:00:00 11,3 10,5 6,9 16,7 18,0 7 4 9 5 ZW 1025,1 13 0 0,0
14.11.2018 22:00:00 11,6 10,8 8,4 16,6 18,0 5 3 10 6 ZW 1025,3 12 0 0,0
14.11.2018 21:00:00 11,9 11,1 7,5 16,6 18,0 6 3 9 5 ZW 1025,3 8 0 0,0
14.11.2018 20:00:00 12,9 12,0 7,8 16,6 18,0 3 2 7 4 W 1025,4 7 0 0,0
14.11.2018 19:00:00 13,5 12,6 9,1 16,6 18,0 5 3 9 5 ZZW 1025,3 3,6 0 0,0
14.11.2018 18:00:00 14,5 13,2 10,1 16,5 18,0 6 3 7 4 ZW 1025,4 4,3 0 0,0
14.11.2018 17:00:00 17,0 14,1 12,3 16,4 18,0 0 0 10 5 N 1025,3 2,2 26 0,0
14.11.2018 16:00:00 18,6 14,9 19,6 16,4 18,0 8 4 11 6 OZO 1025,4 23 48 0,0
14.11.2018 15:00:00 19,5 14,3 24,4 16,3 18,0 9 5 13 7 O 1025,5 21 60 0,0
14.11.2018 14:00:00 20,0 15,0 26,9 16,3 18,0 8 5 16 8 O 1025,8 20 60 0,0
14.11.2018 13:00:00 20,7 14,6 23,2 16,3 18,0 5 3 13 7 ZZO 1026,4 42 42 0,0
14.11.2018 12:00:00 20,2 13,6 21,2 16,3 18,0 2 1 13 7 OZO 1027,1 20 33 0,0

tt = temperatuur
td = dauwpunt
tt 5cm = temperatuur 5cm
tt -20cm = temperatuur -20cm
tt -100cm = temperatuur -100cm
ff = windsnelheid
fx = windstoten
dd = windrichting
ppp = luchtdruk
vv = zicht
sd = Zonneschijnduur
rr = neerslag

Weerstations in de omgeving